KJ4CO Weather Reports


time (UTC)temp
F
wind
direction
speed
knots
gust
knots
rain 1hr
in
rain 24hr
in
rain mn
in
humidity
%
barometer
mb
20260510214544 74 353 0.0 0.0 0.00 0.00 0.00 56 1016.5
20260510213039 73 355 0.0 0.0 0.00 0.00 0.00 58 1016.4
20260510211540 74 3 0.0 0.0 0.00 0.00 0.00 58 1016.5
20260510210043 74 3 0.0 0.0 0.00 0.00 0.00 57 1016.4
20260510204540 74 3 0.0 0.0 0.00 0.00 0.00 58 1016.3
20260510203037 74 3 0.0 0.0 0.00 0.00 0.00 59 1016.4
20260510201538 74 39 0.0 0.0 0.00 0.00 0.00 59 1016.5
20260510200106 74 66 0.0 0.0 0.00 0.00 0.00 61 1016.8
20260510194545 75 24 0.0 0.0 0.00 0.00 0.00 62 1016.7
20260510193042 76 26 0.0 0.0 0.00 0.00 0.00 64 1016.7
20260510191531 76 340 0.0 0.0 0.00 0.00 0.00 69 1016.5
20260510190030 77 191 0.0 0.0 0.00 0.00 0.00 69 1016.4
20260510184528 76 195 0.0 0.0 0.00 0.00 0.00 66 1016.3
20260510183041 76 190 0.0 0.0 0.00 0.00 0.00 65 1016.1
20260510181528 76 187 0.0 0.0 0.00 0.00 0.00 66 1016.0
20260510180024 76 188 0.0 0.0 0.00 0.00 0.00 67 1016.1
20260510174524 76 188 0.0 0.0 0.00 0.00 0.00 66 1016.2
20260510173022 75 190 0.0 0.0 0.00 0.00 0.00 65 1016.4
20260510171519 75 133 0.0 0.0 0.00 0.00 0.00 64 1016.5
20260510170018 74 133 0.0 0.0 0.00 0.00 0.00 67 1016.6
20260510164520 74 133 0.0 0.0 0.00 0.00 0.00 69 1016.6
20260510163015 74 133 0.0 0.0 0.00 0.00 0.00 67 1016.7
20260510161512 73 133 0.0 0.0 0.00 0.00 0.00 71 1016.6
20260510160012 73 129 0.0 0.0 0.00 0.00 0.00 68 1016.5
20260510154509 72 129 0.0 0.0 0.00 0.00 0.00 68 1016.3
20260510153008 72 129 0.0 0.0 0.00 0.00 0.00 72 1016.2
20260510151505 71 129 0.0 0.0 0.00 0.00 0.00 70 1016.0
20260510150001 70 129 0.0 0.0 0.00 0.00 0.00 69 1016.0
20260510144501 70 129 0.0 0.0 0.00 0.00 0.00 68 1015.9
20260510143059 70 129 0.0 0.0 0.00 0.00 0.00 67 1015.8
20260510141603 70 129 0.0 0.0 0.00 0.00 0.00 72 1015.7
20260510140055 69 129 0.0 0.0 0.00 0.00 0.00 75 1015.4
20260510134555 66 129 0.0 0.0 0.00 0.00 0.00 77 1015.2
20260510133100 64 129 0.0 0.0 0.00 0.00 0.00 88 1015.2
20260510131539 62 129 0.0 0.0 0.00 0.00 0.00 91 1015.3
20260510130036 60 129 0.0 0.0 0.00 0.00 0.00 94 1015.2
20260510124531 59 129 0.0 0.0 0.00 0.00 0.00 94 1015.0
20260510123031 57 129 0.0 0.0 0.00 0.00 0.00 94 1014.9
20260510121528 56 129 0.0 0.0 0.00 0.00 0.00 93 1014.8
20260510120030 56 129 0.0 0.0 0.00 0.00 0.00 93 1014.8
20260510114525 56 129 0.0 0.0 0.00 0.00 0.00 92 1014.4
20260510113022 56 129 0.0 0.0 0.00 0.00 0.00 91 1013.9
20260510111519 56 129 0.0 0.0 0.00 0.00 0.00 91 1013.8
20260510110019 56 129 0.0 0.0 0.00 0.00 0.00 90 1013.6
20260510104515 56 129 0.0 0.0 0.00 0.00 0.00 90 1013.6
20260510103015 56 129 0.0 0.0 0.00 0.00 0.00 90 1013.4
20260510101513 56 129 0.0 0.0 0.00 0.00 0.00 89 1013.4
20260510100012 57 129 0.0 0.0 0.00 0.00 0.00 88 1013.3
20260510094512 57 129 0.0 0.0 0.00 0.00 0.00 87 1013.4
20260510093011 57 129 0.0 0.0 0.00 0.00 0.00 86 1013.5
20260510091511 58 129 0.0 0.0 0.00 0.00 0.00 85 1013.1
20260510090008 58 129 0.0 0.0 0.00 0.00 0.00 86 1013.2
20260510084505 56 129 0.0 0.0 0.00 0.00 0.00 88 1012.7
20260510083002 56 129 0.0 0.0 0.00 0.00 0.00 88 1012.4
20260510081605 57 129 0.0 0.0 0.00 0.00 0.00 88 1012.2
20260510080100 57 129 0.0 0.0 0.00 0.00 0.00 89 1011.9
20260510074558 57 129 0.0 0.0 0.00 0.00 0.00 88 1011.8
20260510073112 58 129 0.0 0.0 0.00 0.00 0.00 87 1012.0
20260510071604 58 129 0.0 0.0 0.00 0.00 0.00 86 1012.0
20260510070052 58 129 0.0 0.0 0.00 0.00 0.00 85 1012.1
20260510064556 59 129 0.0 0.0 0.00 0.00 0.00 86 1012.0
20260510063048 59 129 0.0 0.0 0.00 0.00 0.00 86 1011.8
20260510061544 59 129 0.0 0.0 0.00 0.00 0.00 85 1011.6
20260510060042 59 129 0.0 0.0 0.00 0.00 0.00 85 1011.8
20260510054541 59 129 0.0 0.0 0.00 0.00 0.00 84 1011.8
20260510053038 59 129 0.0 0.0 0.00 0.00 0.00 84 1011.7
20260510051543 59 129 0.0 0.0 0.00 0.00 0.00 84 1011.7
20260510050038 59 129 0.0 0.0 0.00 0.00 0.00 84 1011.6
20260510044545 59 129 0.0 0.0 0.00 0.00 0.00 84 1011.5
20260510043035 59 129 0.0 0.0 0.00 0.00 0.00 84 1011.4
20260510041533 59 129 0.0 0.0 0.00 0.00 0.00 84 1011.4
20260510040033 59 129 0.0 0.0 0.00 0.00 0.00 83 1011.3
20260510034536 60 129 0.0 0.0 0.00 0.00 0.00 84 1011.4
20260510033032 60 130 0.0 0.0 0.00 0.00 0.00 83 1011.3
20260510031533 61 130 0.0 0.0 0.00 0.00 0.00 81 1011.4
20260510030030 61 130 0.0 0.0 0.00 0.00 0.00 80 1011.3
20260510024529 62 130 0.0 0.0 0.00 0.00 0.00 79 1011.2
20260510023027 63 130 0.0 0.0 0.00 0.00 0.00 77 1011.1
20260510021534 64 130 0.0 0.0 0.00 0.00 0.00 75 1011.0
20260510020024 65 130 0.0 0.0 0.00 0.00 0.00 73 1010.9
20260510014523 66 130 0.0 0.0 0.00 0.00 0.00 72 1010.7
20260510013021 68 130 0.0 0.0 0.00 0.00 0.00 69 1010.5
20260510011521 69 130 0.0 0.0 0.00 0.00 0.00 64 1010.2
20260510010021 70 130 0.0 0.0 0.00 0.00 0.00 63 1010.0
20260510004520 71 130 0.0 0.0 0.00 0.00 0.00 63 1009.8
20260510003023 73 130 0.0 0.0 0.00 0.00 0.00 59 1009.6
20260510001519 75 130 0.0 0.0 0.00 0.00 0.00 57 1009.4
20260510000020 77 130 0.0 0.0 0.00 0.00 0.00 55 1009.4
20260509234524 79 130 0.0 0.0 0.00 0.00 0.00 48 1009.1
20260509233018 80 130 0.0 0.0 0.00 0.00 0.00 43 1009.2
20260509231517 81 130 0.0 0.0 0.00 0.00 0.00 41 1009.2
20260509230016 82 130 0.0 0.0 0.00 0.00 0.00 42 1009.3
20260509224515 82 130 0.0 0.0 0.00 0.00 0.00 42 1009.4
20260509223016 83 130 0.0 0.0 0.00 0.00 0.00 41 1009.3
20260509221514 83 130 0.0 0.0 0.00 0.00 0.00 41 1009.2
20260509220010 83 130 0.0 0.0 0.00 0.00 0.00 43 1009.1